Guaymas, Mexico

3:45 AM MST on December 19, 2018 (GMT -0700)
Gen Jose Ma Yanez International

Weather History for MMGM - May, 2018

Change the Weather History Date:

Thursday, May 17, 2018

  Actual Average Record
Temperature  
Mean Temperature 88 °F -  
Max Temperature 98 °F 92 °F 100 °F (2014)
Min Temperature 77 °F 73 °F 62 °F (2017)
Cooling Degree Days 22    
Growing Degree Days 38 (Base 50)    
Moisture  
Dew Point 45 °F    
Average Humidity 21    
Maximum Humidity 43    
Minimum Humidity 4    
Precipitation  
Precipitation 0.00 in - - ()
Sea Level Pressure  
Sea Level Pressure 29.77 in    
Wind  
Wind Speed 6 mph ()    
Max Wind Speed 17 mph    
Max Gust Speed -    
Visibility 10.0 miles    
Events      
Averages and records for this station are not official NWS values.
T = Trace of Precipitation, MM = Missing Value Source: Averaged Metar Reports

Daily Weather History Graph

Daily Weather History Graph

Search for Another Location

Airport or City:

Astronomy

May. 17, 2018 Rise Set
Actual Time 5:32 AM MST 7:07 PM MST
Civil Twilight 5:07 AM MST 7:33 PM MST
Nautical Twilight 4:36 AM MST 8:04 PM MST
Astronomical Twilight 4:04 AM MST 8:36 PM MST
Moon 7:40 AM MST (5/17) 9:43 PM MST (5/17)
Length of Visible Light 14h 25m
Length of Day
13h 34m
Waxing Crescent, 7% of the Moon is Illuminated
May 17
Waxing Crescent
May 21
First Quarter
May 29
Full
Jun 6
Last Quarter
Jun 13
New

Hourly Weather History & Observations

Time (MST) Temp. Heat Index Dew Point Humidity Pressure Visibility Wind Dir Wind Speed Gust Speed Precip Events Conditions
2:00 AM 79 °F - 44 °F 18% 29.78 in - WNW 6.7 mph - -  
5:00 AM 77 °F - 40 °F 16% 29.80 in - NW 6.7 mph - -  
6:48 AM 80.6 °F - 46.4 °F 30% 29.77 in 10.0 mi Calm Calm - N/A   Clear
7:42 AM 84.2 °F - 48.2 °F 29% 29.78 in 10.0 mi Calm Calm - N/A   Clear
8:00 AM 87 °F - 39 °F 10% 29.85 in - West 2.2 mph - -  
8:44 AM 89.6 °F 87.3 °F 53.6 °F 29% 29.79 in 10.0 mi Calm Calm - N/A   Clear
9:51 AM 91.4 °F 89.1 °F 53.6 °F 28% 29.80 in 10.0 mi SSW 8.1 mph - N/A   Clear
10:46 AM 86.0 °F 86.1 °F 60.8 °F 43% 29.80 in 10.0 mi SSW 17.3 mph - N/A   Partly Cloudy
11:00 AM 96 °F - 40 °F 8% 29.86 in - SW 4.5 mph - -  
11:42 AM 87.8 °F 88.5 °F 62.6 °F 43% 29.79 in 10.0 mi SSW 17.3 mph - N/A   Partly Cloudy
12:43 PM 89.6 °F 90.1 °F 62.6 °F 40% 29.78 in 10.0 mi SSW 11.5 mph - N/A   Clear
1:40 PM 91.4 °F 91.4 °F 60.8 °F 36% 29.77 in 10.0 mi SSW 11.5 mph - N/A   Clear
2:00 PM 97 °F - 35 °F 5% 29.82 in - SW 13.4 mph - -  
3:33 PM 93.2 °F 91.3 °F 55.4 °F 28% 29.72 in 10.0 mi SSW 11.5 mph - N/A   Clear
3:43 PM 93.2 °F 91.9 °F 57.2 °F 30% 29.72 in 10.0 mi SSW 11.5 mph - N/A   Clear
4:43 PM 95.0 °F - 48.2 °F 20% 29.70 in 10.0 mi SSW 11.5 mph - N/A   Clear
5:00 PM 98 °F - 28 °F 4% 29.75 in - SW 11.2 mph - -  
5:41 PM 93.2 °F - 32.0 °F 11% 29.69 in 10.0 mi SSW 11.5 mph - N/A   Clear
6:44 PM 93.2 °F - 33.8 °F 12% 29.70 in 10.0 mi SSW 5.8 mph - N/A   Clear
8:00 PM 87 °F - 24 °F 4% 29.77 in - WNW 4.5 mph - -  
11:00 PM 79 °F - 27 °F 7% 29.79 in - NW 4.5 mph - -